星链-1880 (STARLINK-1880 )

导读

STARLINK-1880是美国于2020年11月25日发射的SpaceX星链系列卫星,星链计划旨在构建全球卫星互联网星座,为全球偏远地区提供高速互联网接入服务,该卫星加入庞大星链网络,助力提升星座覆盖密度与服务能力,推动全球太空互联网基础设施建设。

基本信息
目录编号:
47165
目录名称:
STARLINK-1880
国际标识:
2020-088AV
轨道中心:
EARTH
卫星名称:
星链-1880
卫星全名:
星链-1880 (STARLINK-1880 )
卫星状态:
已陨落 最后检测时间 2025-02-06
发射日期:
2020-11-25 UTC
国别 :
美国 (US)
星等 :
--
该卫星已列入 空间交会检测服务 Space Conjunction Data Service (SCDS) ,当前飞行风险评估等级: 无高风险
轨道信息
数据来源 国际轨道数据
星历时间: 2025-02-06T07:54:25+0800
轨道信息已过期582天
半长轴: 6535.139km
偏心率: 0.000764
轨道倾角: 53.024°
近地点辐角 295.847°
升交点赤经 247.398°
平近点角 175.493°
近地点: 152.011km
远地点: 161.997km
周期: 87.628分钟
每日圈数: 16.433139
详细信息
固有亮度:
5
最大亮度:
2.5
卫星平台:
Starlink V1.0
覆盖范围:
全球
运营商:
太空探索技术公司
运营商所在国:
美国
制造商(研发单位):
太空探索技术公司
制造商所在国:
美国
使用方式:
暂无
卫星简介
星链(Starlink)计划是由太空探索技术公司(SpaceX)提出的一个巨型低轨卫星互联网星座项目,计划在2019年至2024年间在太空搭建由约1.2万颗卫星组成的“星链”网络,其中1584颗将部署在地球上空550千米处的近地轨道,并从2020年开始工作。该卫星仍在工作。
与全量物体交会距离演化趋势
与全量物体交会风险概率演化趋势